Flag for Philippines Weather past 2 weeks in Olongapo, Philippines

Now
75 °F

Overcast.


Feels Like: 75 °F
Forecast: 76 / 87 °F
Wind: No wind

Location: Subic Bay Weather Station

Current Time: Aug 21, 2014 at 10:51:11 PM

Latest Report: Aug 21, 2014 at 10:00 PM


Visibility: N/A

Pressure: 29.89 "Hg

Humidity: 89%

Dew point: 72 °F

Location of OlongapoLocation

Historic Weather in Olongapo — Graph

°F

Olongapo temperature yesterday

Maximum temperature yesterday: 90 °F (at 11:00 AM)
Minimum temperature yesterday: 75 °F (at 9:00 PM)
Average temperature yesterday: 83 °F

Past Weeks' High & Low Weather Summary

 TemperatureHumidityPressure
High102 °F (Aug 9, 3:00 PM)100% (Aug 7, 9:00 AM)29.92 "Hg (Aug 7, 9:00 AM)
Low75 °F (Aug 7, 9:00 AM)48% (Aug 9, 3:00 PM)29.71 "Hg (Aug 11, 2:00 PM)
Average83 °F79%29.80 "Hg
* Reported Aug 6 10:00 PM — Aug 21 10:00 PM, Olongapo, Weather by CustomWeather, © 2014

Note: Actual official high and low records may vary slightly from our data, if they occured in-between our weather recording intervals... More about our weather records

Advertising

Olongapo weather history for previous 24 hours

 ConditionsComfort  
Time TempWeatherWind HumidityBarometerVisibility
10:00 PM
Aug 21
75 °FOvercast.No wind89%29.89 "HgN/A
9:00 PM75 °FOvercast.5 mph89%29.86 "HgN/A
8:00 PM77 °FLight rain. Mostly cloudy.1 mph89%29.83 "HgN/A
7:00 PM79 °FThunderstorms. Overcast.13 mph84%29.80 "HgN/A
6:00 PM82 °FBroken clouds.3 mph84%29.77 "HgN/A
5:00 PM86 °FBroken clouds.No wind75%29.74 "HgN/A
4:00 PM86 °FPartly sunny.No wind66%29.71 "HgN/A
3:00 PM86 °FPartly sunny.No wind66%29.74 "HgN/A
2:00 PM86 °FRain showers. Broken clouds.7 mph70%29.74 "Hg6 mi
1:00 PM90 °FPartly sunny.14 mph67%29.74 "HgN/A
12:00 PM88 °FBroken clouds.8 mph66%29.77 "HgN/A
11:00 AM90 °FScattered clouds.3 mph63%29.80 "HgN/A
8:00 AM82 °FScattered clouds.7 mph79%29.80 "HgN/A
7:00 AM81 °FScattered clouds.3 mph84%29.80 "HgN/A
5:00 AM77 °FPassing clouds.No wind89%29.80 "HgN/A
1:00 AM77 °FPassing clouds.No wind89%29.83 "HgN/A
12:00 AM77 °FPassing clouds.1 mph89%29.86 "HgN/A
11:00 PM
Aug 20
75 °FMild.5 mph89%29.86 "Hg6 mi
Weather by CustomWeather, © 2014

See weather overviewHow to use our weather pages